Location: Gleizolles
(44.4833°N, 6.7667°E)
Time: 09:32:41
(UTC+00:00)

COSMOS 2455 - Pass Details

Date: 09 April 2020
Orbit: 899 x 910 km, 67.1° (Epoch: 05 June)

Event Time Altitude Azimuth Distance (km) Brightness Sun altitude
Rises 20:02:03 0° 325° (NW) 3,545 7.2 -19.1°
Reaches altitude 10° 20:04:35 10° 323° (NW) 2,601 6.3 -19.5°
Maximum altitude 20:10:31 61° 244° (WSW) 1,027 3.2 -20.4°
Enters shadow 20:13:56 26° 173° (S) 1,718 3.9 -20.8°
